Find Starlink 32826

NORAD ID: 62970 Int'l Des: 2025-029 Owner: SPXS Country: US Constellation: starlink operational
LEOCIRCULAR

Live Position

Loading 3D Globe...

About Starlink 32826

Description loading...

Upcoming Passes

Passes for default location (London). Set your location on the main map for personalized predictions.

Altitude History

Loading altitude history...

Two-Line Element Set

1 62970U 25029Y 26105.60826257 .00012517 00000-0 43397-3 0 9997
2 62970 53.1589 60.7056 0001337 92.9520 267.1634 15.30205417 66977
Epoch: Apr 15, 2026 • Age: 10 hours

Current Status

Altitude 479.6 km
Velocity 7.63 km/s
Sub-Earth Point 47.75°N, 27.89°W
Launch Date Feb 11, 2025
Age 1.1 years
Type internet

Technical Details

Classification Payload
Mass 730.00 kg
Dry Mass 700.00 kg
Total Mass 730.00 kg
Length 0.30 m
Diameter 4.10 m
Span 29.00 m
Shape Box + pan
Manufacturer SPXS
Bus Type Starlink V2M
Phase Status In Orbit
Owner/State SPXS/US

Most Searched